DW2537 Weather Reports


time (UTC)temp
F
wind
direction
speed
knots
gust
knots
rain 1hr
in
rain 24hr
in
rain mn
in
humidity
%
barometer
mb
20260505012018 63 0 0.0 0.0 0.00 0.00 0.00 58 1010.2
20260505011538 63 0 0.0 1.7 0.00 0.00 0.00 57 1010.2
20260505011018 64 0 0.0 1.7 0.00 0.00 0.00 57 1010.1
20260505010518 64 173 0.0 1.7 0.00 0.00 0.00 56 1010.1
20260505010033 64 0 0.0 1.7 0.00 0.00 0.00 53 1010.1
20260505005519 65 0 0.0 1.7 0.00 0.00 0.00 54 1010.0
20260505005019 65 173 0.0 1.7 0.00 0.00 0.00 54 1009.9
20260505004547 65 0 0.0 1.7 0.00 0.00 0.00 54 1009.7
20260505004018 66 0 0.0 1.7 0.00 0.00 0.00 51 1009.7
20260505003518 66 169 0.0 1.7 0.00 0.00 0.00 53 1009.7
20260505003041 66 0 0.0 1.7 0.00 0.00 0.00 52 1009.8
20260505002518 66 109 0.0 0.9 0.00 0.00 0.00 52 1009.8
20260505002022 66 111 0.0 0.9 0.00 0.00 0.00 52 1009.8
20260505001539 66 111 0.0 1.7 0.00 0.00 0.00 52 1009.7
20260505001022 66 111 0.0 1.7 0.00 0.00 0.00 52 1009.7
20260505000518 67 111 0.0 1.7 0.00 0.00 0.00 52 1009.6
20260505000056 67 0 0.0 1.7 0.00 0.00 0.00 52 1009.7
20260504235519 67 0 0.0 1.7 0.00 0.00 0.00 50 1009.7
20260504235019 68 113 0.0 1.7 0.00 0.00 0.00 49 1009.6
20260504234533 68 113 0.0 1.7 0.00 0.00 0.00 49 1009.7
20260504234018 68 0 0.0 1.7 0.00 0.00 0.00 48 1009.6
20260504233520 69 0 0.0 1.7 0.00 0.00 0.00 48 1009.6
20260504233033 69 0 0.0 2.6 0.00 0.00 0.00 47 1009.6
20260504232519 69 0 0.0 2.6 0.00 0.00 0.00 46 1009.5
20260504232019 70 140 0.0 1.7 0.00 0.00 0.00 46 1009.5
20260504231532 70 57 0.0 3.5 0.00 0.00 0.00 46 1009.5
20260504231030 70 51 0.0 3.5 0.00 0.00 0.00 45 1009.5
20260504230518 70 248 0.0 3.5 0.00 0.00 0.00 44 1009.5
20260504230035 70 251 0.9 3.5 0.00 0.00 0.00 44 1009.6
20260504225518 70 136 0.0 2.6 0.00 0.00 0.00 44 1009.5
20260504225018 71 360 0.9 9.6 0.00 0.00 0.00 43 1009.5
20260504224529 71 84 1.7 9.6 0.00 0.00 0.00 39 1009.5
20260504224018 71 183 1.7 7.0 0.00 0.00 0.00 39 1009.5
20260504223518 72 55 0.9 5.2 0.00 0.00 0.00 43 1009.5
20260504223033 72 61 0.9 6.1 0.00 0.00 0.00 42 1009.5
20260504222517 72 97 1.7 6.1 0.00 0.00 0.00 38 1009.5
20260504222020 73 78 1.7 4.3 0.00 0.00 0.00 41 1009.5
20260504221544 73 275 0.9 4.3 0.00 0.00 0.00 41 1009.5
20260504221019 74 122 0.9 4.3 0.00 0.00 0.00 40 1009.4
20260504220520 75 0 1.7 4.3 0.00 0.00 0.00 39 1009.4
20260504220033 75 45 0.9 4.3 0.00 0.00 0.00 36 1009.3
20260504215520 75 41 0.9 7.8 0.00 0.00 0.00 36 1009.3
20260504215019 75 260 0.9 7.8 0.00 0.00 0.00 35 1009.3
20260504214535 75 214 1.7 4.3 0.00 0.00 0.00 33 1009.4
20260504214019 75 280 0.0 5.2 0.00 0.00 0.00 34 1009.4
20260504213518 76 184 0.9 5.2 0.00 0.00 0.00 35 1009.4
20260504213043 76 188 1.7 4.3 0.00 0.00 0.00 36 1009.5
20260504212518 76 20 0.9 3.5 0.00 0.00 0.00 32 1009.4
20260504212017 76 201 0.9 5.2 0.00 0.00 0.00 32 1009.4
20260504211533 76 96 1.7 5.2 0.00 0.00 0.00 34 1009.4
20260504211018 76 258 1.7 5.2 0.00 0.00 0.00 36 1009.4
20260504210518 76 165 0.9 7.8 0.00 0.00 0.00 35 1009.4
20260504210033 76 174 1.7 7.8 0.00 0.00 0.00 35 1009.5
20260504205518 77 180 1.7 5.2 0.00 0.00 0.00 35 1009.5
20260504205018 77 52 1.7 6.1 0.00 0.00 0.00 35 1009.5
20260504204537 77 55 0.9 7.0 0.00 0.00 0.00 37 1009.7
20260504204018 77 163 0.9 7.0 0.00 0.00 0.00 35 1009.8
20260504203518 77 169 1.7 7.0 0.00 0.00 0.00 31 1009.8
20260504203039 77 169 2.6 11.3 0.00 0.00 0.00 31 1009.9
20260504202522 77 202 1.7 11.3 0.00 0.00 0.00 35 1009.9
20260504202019 77 166 3.5 10.4 0.00 0.00 0.00 35 1010.0
20260504201538 76 221 0.9 5.2 0.00 0.00 0.00 35 1010.0
20260504201018 76 183 0.9 8.7 0.00 0.00 0.00 36 1010.1
20260504200518 76 59 1.7 8.7 0.00 0.00 0.00 34 1010.3
20260504200038 77 360 0.9 6.1 0.00 0.00 0.00 37 1010.3
20260504195518 77 215 1.7 7.0 0.00 0.00 0.00 34 1010.3
20260504195019 77 170 2.6 7.0 0.00 0.00 0.00 35 1010.4
20260504194532 76 180 2.6 6.1 0.00 0.00 0.00 36 1010.5
20260504194019 76 27 0.9 7.8 0.00 0.00 0.00 33 1010.5
20260504193519 76 192 1.7 7.8 0.00 0.00 0.00 36 1010.8
20260504193038 76 133 1.7 7.8 0.00 0.00 0.00 37 1010.9
20260504192518 76 217 3.5 7.8 0.00 0.00 0.00 36 1011.0
20260504192018 76 5 1.7 7.0 0.00 0.00 0.00 35 1011.0
20260504191534 76 352 2.6 7.0 0.00 0.00 0.00 39 1011.1
20260504191018 76 89 0.9 5.2 0.00 0.00 0.00 36 1011.1
20260504190520 76 138 1.7 4.3 0.00 0.00 0.00 37 1011.3
20260504190039 76 298 0.9 4.3 0.00 0.00 0.00 37 1011.4
20260504185518 75 237 0.9 4.3 0.00 0.00 0.00 37 1011.4
20260504185018 75 56 1.7 7.0 0.00 0.00 0.00 35 1011.5
20260504184534 75 178 2.6 7.0 0.00 0.00 0.00 34 1011.5
20260504184020 75 70 1.7 8.7 0.00 0.00 0.00 34 1011.6
20260504183519 74 26 0.9 8.7 0.00 0.00 0.00 37 1011.7
20260504183033 74 189 0.9 7.8 0.00 0.00 0.00 39 1011.7
20260504182519 74 26 1.7 7.8 0.00 0.00 0.00 36 1011.8
20260504182019 74 273 2.6 7.8 0.00 0.00 0.00 34 1011.8
20260504181533 74 202 1.7 7.8 0.00 0.00 0.00 37 1012.0
20260504181019 74 331 1.7 7.8 0.00 0.00 0.00 37 1011.9
20260504180519 74 101 2.6 7.8 0.00 0.00 0.00 37 1012.0
20260504180032 74 198 1.7 5.2 0.00 0.00 0.00 35 1012.0
20260504175521 74 180 1.7 7.0 0.00 0.00 0.00 32 1012.1
20260504175018 74 336 1.7 7.0 0.00 0.00 0.00 36 1012.2
20260504174534 73 168 1.7 7.0 0.00 0.00 0.00 34 1012.0
20260504174016 73 178 1.7 4.3 0.00 0.00 0.00 32 1012.1
20260504173519 73 42 1.7 5.2 0.00 0.00 0.00 35 1012.3
20260504173036 72 18 1.7 7.0 0.00 0.00 0.00 33 1012.3
20260504172519 72 175 1.7 7.0 0.00 0.00 0.00 35 1012.3
20260504172019 72 193 1.7 5.2 0.00 0.00 0.00 33 1012.5
20260504171532 72 184 0.9 5.2 0.00 0.00 0.00 33 1012.7
20260504171019 72 5 1.7 5.2 0.00 0.00 0.00 35 1012.8
20260504170516 73 85 1.7 5.2 0.00 0.00 0.00 37 1012.7
20260504151018 69 222 0.9 3.5 0.00 0.00 0.00 36 1013.7
20260504150518 68 236 0.0 3.5 0.00 0.00 0.00 39 1013.9
20260504141017 64 309 0.0 2.6 0.00 0.00 0.00 47 1014.2
20260504140516 63 223 0.9 2.6 0.00 0.00 0.00 42 1014.3
20260504130516 58 188 1.7 7.0 0.00 0.00 0.00 49 1014.5
20260504110518 46 247 0.0 1.7 0.00 0.00 0.00 79 1015.1
20260504100518 47 247 0.0 1.7 0.00 0.00 0.00 77 1015.1
20260504081537 46 0 0.0 1.7 0.00 0.00 0.00 75 1015.3
20260504081018 46 0 0.0 1.7 0.00 0.00 0.00 72 1015.3
20260504080517 46 0 0.0 1.7 0.00 0.00 0.00 74 1015.3
20260504050518 43 0 0.0 1.7 0.00 0.00 0.00 74 1015.6
20260504045518 43 0 0.0 1.7 0.00 0.00 0.00 73 1015.6
20260504045018 43 0 0.0 0.0 0.00 0.00 0.00 73 1015.6
20260504044540 43 0 0.0 0.0 0.00 0.00 0.00 72 1015.6
20260504044018 44 0 0.0 1.7 0.00 0.00 0.00 72 1015.6
20260504043519 44 0 0.0 1.7 0.00 0.00 0.00 72 1015.7
20260504043035 44 0 0.0 1.7 0.00 0.00 0.00 72 1015.6
20260504042517 44 0 0.0 1.7 0.00 0.00 0.00 71 1015.6
20260504042019 44 196 0.0 1.7 0.00 0.00 0.00 71 1015.6
20260504041535 44 0 0.0 1.7 0.00 0.00 0.00 70 1015.7
20260504041017 44 0 0.0 1.7 0.00 0.00 0.00 70 1015.7
20260504040518 44 0 0.0 1.7 0.00 0.00 0.00 69 1015.7
20260504040041 44 0 0.0 1.7 0.00 0.00 0.00 69 1015.6
20260504035521 44 0 0.0 1.7 0.00 0.00 0.00 69 1015.7
20260504035020 45 0 0.0 1.7 0.00 0.00 0.00 69 1015.6
20260504034540 45 0 0.0 1.7 0.00 0.00 0.00 68 1015.5
20260504034018 45 196 0.0 1.7 0.00 0.00 0.00 67 1015.5
20260504033520 45 0 0.0 1.7 0.00 0.00 0.00 66 1015.5
20260504033040 45 0 0.0 1.7 0.00 0.00 0.00 68 1015.4
20260504032518 45 196 0.0 1.7 0.00 0.00 0.00 68 1015.3
20260504032018 45 0 0.0 1.7 0.00 0.00 0.00 69 1015.2
20260504031543 45 0 0.0 1.7 0.00 0.00 0.00 68 1015.2
20260504031017 45 196 0.0 1.7 0.00 0.00 0.00 67 1015.1
20260504030518 45 196 0.0 1.7 0.00 0.00 0.00 67 1015.0
20260504030040 45 196 0.0 1.7 0.00 0.00 0.00 67 1014.9
20260504025518 45 0 0.0 1.7 0.00 0.00 0.00 68 1014.9
20260504025020 45 0 0.0 1.7 0.00 0.00 0.00 68 1014.9
20260504024534 45 196 0.0 1.7 0.00 0.00 0.00 66 1015.0
20260504024017 46 0 0.0 0.0 0.00 0.00 0.00 66 1014.9
20260504023518 46 0 0.0 0.9 0.00 0.00 0.00 66 1014.9
20260504023040 46 0 0.0 0.9 0.00 0.00 0.00 66 1015.0
20260504022517 46 0 0.0 0.0 0.00 0.00 0.00 63 1014.9
20260504022019 46 0 0.0 1.7 0.00 0.00 0.00 65 1014.9
20260504021536 46 0 0.0 1.7 0.00 0.00 0.00 66 1014.9
20260504021017 47 196 0.0 1.7 0.00 0.00 0.00 65 1014.8
20260504020517 47 0 0.0 1.7 0.00 0.00 0.00 65 1014.9
20260504020034 47 0 0.0 1.7 0.00 0.00 0.00 65 1014.8
20260504015518 47 0 0.0 1.7 0.00 0.00 0.00 64 1014.9
20260504015018 47 0 0.0 0.0 0.00 0.00 0.00 61 1014.9
20260504014534 48 0 0.0 0.0 0.00 0.00 0.00 63 1014.7
20260504014016 48 0 0.0 1.7 0.00 0.00 0.00 62 1014.8
20260504013516 48 0 0.0 1.7 0.00 0.00 0.00 62 1014.8
20260504013041 48 0 0.0 0.0 0.00 0.00 0.00 60 1014.7
20260504012519 49 0 0.0 0.0 0.00 0.00 0.00 60 1014.7